Phuket, Thailand

8:09 AM +07 on November 19, 2018 (GMT +0700)
Phuket International

Weather History for VTSP - February, 2018

Change the Weather History Date:

Tuesday, February 13, 2018

  Actual Average Record
Temperature  
Mean Temperature 81 °F -  
Max Temperature 89 °F 91 °F 98 °F (2003)
Min Temperature 73 °F 75 °F 69 °F (2000)
Cooling Degree Days 16    
Growing Degree Days 31 (Base 50)    
Moisture  
Dew Point 69 °F    
Average Humidity 65    
Maximum Humidity 83    
Minimum Humidity 43    
Precipitation  
Precipitation 0.00 in 0.06 in - ()
Sea Level Pressure  
Sea Level Pressure 29.96 in    
Wind  
Wind Speed 7 mph ()    
Max Wind Speed 14 mph    
Max Gust Speed -    
Visibility 5.6 miles    
Events      
Averages and records for this station are not official NWS values.
T = Trace of Precipitation, MM = Missing Value Source: Averaged Metar Reports

Daily Weather History Graph

Daily Weather History Graph

Search for Another Location

Airport or City:

Astronomy

Feb. 13, 2018 Rise Set
Actual Time 6:45 AM +07 6:36 PM +07
Civil Twilight 6:23 AM +07 6:58 PM +07
Nautical Twilight 5:59 AM +07 7:22 PM +07
Astronomical Twilight 5:34 AM +07 7:47 PM +07
Moon 4:37 AM +07 (2/13) 4:37 PM +07 (2/13)
Length of Visible Light 12h 34m
Length of Day
11h 51m
Waning Crescent, 7% of the Moon is Illuminated
Feb 13
Waning Crescent
Feb 16
New
Feb 23
First Quarter
Mar 2
Full
Mar 9
Last Quarter

Hourly Weather History & Observations

Time (+07) Temp. Heat Index Dew Point Humidity Pressure Visibility Wind Dir Wind Speed Gust Speed Precip Events Conditions
12:00 AM 80.6 °F 83.2 °F 68.0 °F 65% 29.98 in 5.0 mi East 9.2 mph - N/A   Partly Cloudy
12:30 AM 80.6 °F 83.2 °F 68.0 °F 65% 29.98 in 5.0 mi East 11.5 mph - N/A   Partly Cloudy
1:00 AM 80 °F - 71 °F 67% 29.94 in 6 mi ESE 2.3 mph - -   Mist
1:00 AM 78.8 °F - 68.0 °F 69% 29.95 in 5.0 mi East 9.2 mph - N/A   Partly Cloudy
1:30 AM 78.8 °F - 68.0 °F 69% 29.95 in 5.0 mi East 8.1 mph - N/A   Partly Cloudy
2:00 AM 78.8 °F - 68.0 °F 69% 29.95 in 5.0 mi ESE 9.2 mph - N/A   Partly Cloudy
2:30 AM 78.8 °F - 68.0 °F 69% 29.95 in 5.0 mi East 9.2 mph - N/A   Partly Cloudy
3:00 AM 78.8 °F - 68.0 °F 69% 29.92 in 5.0 mi East 9.2 mph - N/A   Partly Cloudy
3:30 AM 78.8 °F - 68.0 °F 69% 29.92 in 5.0 mi East 12.7 mph - N/A   Partly Cloudy
4:00 AM 78 °F - 70 °F 71% 29.91 in 6 mi East 2.3 mph - -   Mist
4:00 AM 78.8 °F - 68.0 °F 69% 29.92 in 5.0 mi East 10.4 mph - N/A   Partly Cloudy
4:30 AM 78.8 °F - 68.0 °F 69% 29.92 in 5.0 mi ESE 10.4 mph - N/A   Partly Cloudy
5:00 AM 78.8 °F - 68.0 °F 69% 29.92 in 5.0 mi ESE 10.4 mph - N/A   Partly Cloudy
5:30 AM 78.8 °F - 68.0 °F 69% 29.95 in 5.0 mi ESE 8.1 mph - N/A   Partly Cloudy
6:00 AM 77.0 °F - 68.0 °F 74% 29.95 in 5.0 mi East 8.1 mph - N/A   Partly Cloudy
6:30 AM 77.0 °F - 68.0 °F 74% 29.95 in 5.0 mi East 5.8 mph - N/A   Partly Cloudy
7:00 AM 77 °F - 72 °F 79% 29.94 in 6 mi East 2.3 mph - -   Mist
7:00 AM 77.0 °F - 68.0 °F 74% 29.95 in 5.6 mi East 9.2 mph - N/A   Partly Cloudy
7:30 AM 78.8 °F - 68.0 °F 69% 29.98 in 5.6 mi East 11.5 mph - N/A   Partly Cloudy
8:00 AM 80.6 °F 83.9 °F 69.8 °F 70% 29.98 in 5.6 mi East 8.1 mph - N/A   Partly Cloudy
8:30 AM 80.6 °F 83.2 °F 68.0 °F 65% 30.01 in 6.2 mi East 12.7 mph - N/A   Partly Cloudy
9:00 AM 82.4 °F 85.4 °F 68.0 °F 62% 30.01 in 6.2 mi East 13.8 mph - N/A   Partly Cloudy
9:30 AM 82.4 °F 85.4 °F 68.0 °F 62% 30.01 in 6.2 mi East 13.8 mph - N/A   Partly Cloudy
10:00 AM 85 °F - 71 °F 55% 30.01 in 6 mi ESE 3.5 mph - -   Scattered Clouds
10:00 AM 84.2 °F 87.3 °F 68.0 °F 58% 30.01 in 6.2 mi East 13.8 mph - N/A   Scattered Clouds
10:30 AM 86.0 °F 90.4 °F 69.8 °F 58% 30.01 in 6.2 mi East 10.4 mph - N/A   Scattered Clouds
11:00 AM 84.2 °F 87.3 °F 68.0 °F 58% 30.01 in 6.2 mi Variable 9.2 mph - N/A   Scattered Clouds
11:30 AM 86.0 °F 89.4 °F 68.0 °F 55% 29.98 in 6.2 mi East 11.5 mph - N/A   Scattered Clouds
12:00 PM 86.0 °F 89.4 °F 68.0 °F 55% 29.98 in 6.2 mi East 10.4 mph - N/A   Scattered Clouds
12:30 PM 86.0 °F 89.4 °F 68.0 °F 55% 29.98 in 6.2 mi East 9.2 mph - N/A   Scattered Clouds
1:00 PM 88 °F - 69 °F 43% 29.91 in 6 mi East 3.5 mph - -   Scattered Clouds
1:00 PM 86.0 °F 90.4 °F 69.8 °F 58% 29.95 in 6.2 mi East 9.2 mph - N/A   Scattered Clouds
1:30 PM 87.8 °F 91.4 °F 68.0 °F 52% 29.95 in 6.2 mi East 8.1 mph - N/A   Scattered Clouds
2:00 PM 87.8 °F 90.4 °F 66.2 °F 49% 29.95 in 6.2 mi East 9.2 mph - N/A   Scattered Clouds
2:30 PM 86.0 °F 88.2 °F 66.2 °F 51% 29.92 in 6.2 mi East 8.1 mph - N/A   Scattered Clouds
3:00 PM 86.0 °F 89.4 °F 68.0 °F 55% 29.92 in 6.2 mi East 9.2 mph - N/A   Scattered Clouds
3:30 PM 87.8 °F 90.4 °F 66.2 °F 49% 29.92 in 6.2 mi East 8.1 mph - N/A   Scattered Clouds
4:00 PM 88 °F - 70 °F 46% 29.89 in 6 mi NE 6.9 mph - -   Partly Cloudy
4:30 PM 84.2 °F 88.4 °F 69.8 °F 62% 29.89 in 5.6 mi East 9.2 mph - N/A   Scattered Clouds
5:00 PM 86.0 °F 90.4 °F 69.8 °F 58% 29.89 in 5.6 mi ESE 5.8 mph - N/A   Scattered Clouds
5:30 PM 84.2 °F 88.4 °F 69.8 °F 62% 29.89 in 5.6 mi ESE 6.9 mph - N/A   Scattered Clouds
6:00 PM 82.4 °F 86.3 °F 69.8 °F 66% 29.89 in 5.6 mi East 8.1 mph - N/A   Scattered Clouds
6:30 PM 82.4 °F 86.3 °F 69.8 °F 66% 29.92 in 5.6 mi ESE 8.1 mph - N/A   Scattered Clouds
7:00 PM 84 °F - 71 °F 56% 29.90 in 6 mi Calm Calm - -   Scattered Clouds
7:00 PM 80.6 °F 83.9 °F 69.8 °F 70% 29.92 in 5.0 mi East 8.1 mph - N/A   Scattered Clouds
7:30 PM 78.8 °F - 69.8 °F 74% 29.95 in 5.0 mi Calm Calm - N/A   Scattered Clouds
8:00 PM 78.8 °F - 69.8 °F 74% 29.98 in 5.0 mi Variable 1.2 mph - N/A   Scattered Clouds
8:30 PM 78.8 °F - 69.8 °F 74% 30.01 in 5.0 mi Variable 2.3 mph - N/A   Scattered Clouds
9:00 PM 80.6 °F 83.9 °F 69.8 °F 70% 30.01 in 5.0 mi Variable 2.3 mph - N/A   Scattered Clouds
9:30 PM 77.0 °F - 71.6 °F 83% 30.01 in 5.0 mi Calm Calm - N/A   Scattered Clouds
10:00 PM 80 °F - 72 °F 72% 29.96 in 6 mi Calm Calm - -   Mist
10:00 PM 78.8 °F - 71.6 °F 78% 29.98 in 5.0 mi Variable 2.3 mph - N/A   Scattered Clouds
10:30 PM 77.0 °F - 71.6 °F 83% 30.01 in 5.0 mi Calm Calm - N/A   Scattered Clouds
11:00 PM 77.0 °F - 71.6 °F 83% 30.01 in 5.0 mi Calm Calm - N/A   Scattered Clouds
11:30 PM 78.8 °F - 69.8 °F 74% 30.01 in 5.0 mi Calm Calm - N/A   Scattered Clouds